logo
Rechercher aéroport 
image banner adimage banner adimage banner ad
image banner ad

LTCS - Sanliurfa Gap

Situé à Sanliurfa, Turkey

ICAO - LTCS, IATA - GNY

Données fournies par Airmate  

Information générale

Coordonnées: N37°27'24" E38°54'29"
Élévation : 2708 feet MSL.
Variation magnétique : 5.5° East
Voir autres Aéroports à Sanliurfa

Données opérationnelles

Special qualification required
Heure actuelle UTC:
Heure actuelle locale:
Météo
METAR: LTCS 232120Z 01010KT CAVOK 30/09 Q1005 RMK RWY22 34010KT SKC
TAF: TAF LTCS 231640Z 2318/2418 35009KT CAVOK
Voir NOTAMs / SUP AIP / TFR affectant cet aéroport [VIEW]
Fréquences de communication: [VIEW]

Pistes:

Identifiant RWYQFULongueur (ft)Largeur (ft)SurfaceLDA (ft)
0442°13123148CONC13123
22222°13123148CONC13123

Coordonnées de l'aéroport

Adresse: Sanliurfa Turkey

Vue satellite de LTCS